STARLINK-32481 (62320 NORAD) Tracking and Keplerian Element Data

This shows tracking and keplerian element data for the satellite.

Feedback or suggestion? Click here.




ElementValue
Catalog62320
NameSTARLINK-32481
Epoch Orbit828
Epoch Day35.01243102
Epoch Year2025
RAAN250.0689
Inclination53.1578
Eccentricity0.0002451
Argument of Perigee214.355
Mean Anonmoly145.7297
Mean Motion15.39599327
Decay Rate0.00039836
L11 62320U 24239V 25035.01243102 .00039836 00000+0 10013-2 0 9996
L22 62320 53.1578 250.0689 0002451 214.3550 145.7297 15.39599327 8282



Live tracking and technical data element details for STARLINK-32481 (NORAD 62320). STARLINK-32481 can be tracked NOW for your location showing map with azimuth and elevation plus other details from your city location.







IsCatalogInMostPopularTable: catalog: 62320, numindb: 10
Update: records affected: 1



GetName: 62320 STARLINK-32481

Hit Count: updated at: Mon, 19 May 2025 01:53:20 GMT